Wind_Speed
8 7 4 4 4 5 1 1 1 3 2 1 1 2 2 2 3 2 4 12 1 15 24 23 21 19 17 14 13 11 9 8 7 7 6 6 6 6 7 9 5 6 7 7 7 6 6 5 5
8 4 3 3 5 4 4 4 1 1 1 1 2 2 4 1 2 5 2 11 1 13 23 24 23 21 18 16 14 12 10 8 6 6 5 5 5 5 6 7 5 4 5 4 5 5 4 4 3
3 4 4 4 4 4 3 3 2 2 2 1 2 2 3 2 2 2 3 8 4 12 19 23 23 21 19 16 16 14 12 9 8 6 5 4 4 4 6 5 2 1 3 4 3 3 3 3 2
2 6 4 5 2 1 1 1 3 2 3 4 1 2 3 2 1 3 2 6 4 8 15 19 22 21 19 17 16 15 13 11 8 7 6 5 5 4 3 1 2 2 3 3 3 3 3 3 4
6 3 4 4 2 3 3 1 2 1 0 2 2 2 3 2 2 2 2 2 3 7 11 14 21 21 19 18 18 16 14 12 10 9 7 9 6 5 6 4 3 2 2 3 3 5 5 5 5
4 3 5 2 2 3 2 3 1 2 2 3 2 2 3 4 1 2 2 0 2 5 10 13 18 21 21 19 18 17 15 14 12 11 10 10 8 6 6 5 7 4 3 5 3 6 5 6 5
6 4 4 3 1 2 2 5 3 1 2 2 1 3 3 6 7 2 2 0 1 4 8 11 14 19 21 22 20 19 17 15 13 12 11 10 9 8 7 6 5 5 4 5 5 7 7 6 4
5 4 3 2 1 1 3 3 2 1 1 5 1 2 4 4 9 1 0 1 2 4 7 10 12 16 19 21 21 19 18 16 14 13 12 12 11 11 10 9 7 5 3 6 5 8 8 7 3
3 4 2 4 6 2 2 4 0 2 0 4 3 2 7 14 9 4 5 4 5 5 7 10 13 14 17 19 20 20 18 17 14 13 14 13 13 13 12 11 9 7 6 7 6 9 8 7 4
5 4 6 3 2 2 2 1 3 4 6 2 4 6 18 15 16 17 17 17 17 14 8 9 13 16 17 18 18 20 19 16 17 16 15 15 15 14 16 13 12 9 7 8 8 9 10 8 6
2 4 3 2 3 1 1 2 2 2 4 2 4 7 14 20 22 21 19 18 18 17 12 8 10 15 19 20 19 19 19 18 16 16 16 16 16 15 15 15 14 11 12 11 11 13 14 11 9
1 3 3 3 1 2 2 3 1 5 3 4 8 8 7 12 14 17 18 20 20 18 17 13 8 12 19 21 21 19 19 19 19 18 16 18 17 17 16 16 15 14 13 13 14 15 16 14 12
2 2 1 3 4 4 3 5 2 6 6 10 12 14 11 12 16 18 18 18 20 21 20 19 14 9 13 20 20 17 14 16 18 19 19 16 16 16 17 15 17 16 15 14 14 16 16 15 14
1 3 6 6 2 3 5 2 2 2 6 10 10 9 8 12 14 17 24 22 22 20 20 19 17 12 6 11 13 13 10 9 9 13 15 17 18 18 19 18 17 17 17 15 15 16 16 16 16
2 4 7 4 2 3 6 1 5 4 7 9 9 8 8 13 19 18 18 19 20 19 19 20 19 15 9 6 4 3 3 4 6 6 7 9 12 15 16 17 17 17 17 17 17 16 16 17 17
3 4 4 2 2 2 3 7 3 6 8 7 7 7 8 10 14 19 18 17 18 20 22 23 23 21 20 16 14 12 9 7 8 8 9 10 8 8 12 14 16 16 16 18 18 17 18 16 17
6 3 4 8 1 2 2 5 3 5 8 7 6 6 7 7 15 20 18 18 19 20 22 24 26 28 28 26 26 24 22 22 21 17 17 15 13 13 11 10 11 13 14 15 18 20 18 16 14
6 4 4 6 1 3 2 7 9 6 7 7 6 6 6 7 9 16 18 19 22 23 24 25 24 26 30 31 31 31 30 27 26 25 23 22 20 18 15 15 16 15 13 12 12 12 13 13 14
4 4 6 3 3 2 6 7 12 4 7 7 7 6 6 6 8 16 21 23 25 28 30 29 28 26 21 22 27 30 31 28 28 28 24 23 21 20 21 21 19 18 18 17 14 12 11 13 14
3 4 6 5 4 5 6 9 2 3 2 5 8 6 6 4 5 13 19 23 25 26 29 31 29 27 27 27 24 22 25 29 27 26 25 22 21 20 20 20 20 20 18 18 18 17 14 10 12
5 7 4 7 1 2 1 7 4 3 4 6 5 5 5 5 5 7 14 18 21 25 28 28 29 28 25 25 23 23 25 26 28 29 27 26 24 23 21 20 20 19 19 19 18 17 15 13 14
5 8 7 4 3 4 2 5 4 3 3 3 5 6 6 6 4 5 9 14 18 20 23 27 27 27 27 27 30 32 33 29 28 29 29 29 29 29 29 28 26 24 23 21 19 16 15 12 11
6 5 5 3 3 1 3 0 6 5 5 6 7 7 6 6 6 6 8 11 14 17 22 25 27 28 27 28 29 32 33 29 26 26 27 28 27 28 29 28 28 28 28 27 26 23 21 16 13
9 6 6 4 3 1 8 7 4 5 5 5 6 7 7 6 5 6 8 9 13 15 18 22 25 26 26 26 27 27 26 24 25 24 25 25 24 25 26 25 25 25 25 25 24 22 23 22 19
4 6 0 3 1 6 1 2 7 5 3 5 14 12 9 7 6 6 8 9 10 13 15 18 21 23 22 23 23 23 23 22 23 22 22 22 23 24 24 23 24 24 23 23 22 22 21 21 20
7 6 5 7 4 4 2 6 5 3 5 7 9 11 9 8 6 6 9 9 10 12 13 15 17 20 19 20 21 20 20 20 20 19 18 19 19 19 19 19 21 21 22 23 23 23 22 21 20
5 4 2 6 2 2 5 4 2 1 1 4 7 10 10 8 8 8 12 12 12 12 11 12 14 16 17 17 17 18 17 17 17 16 16 17 17 18 19 20 22 23 24 25 25 26 27 26 26
4 6 4 2 2 5 4 4 5 5 8 6 8 11 8 8 8 8 15 15 13 11 12 12 12 14 14 13 12 12 13 13 14 14 16 16 16 16 18 21 24 26 29 30 31 31 30 29 30
3 3 3 3 4 5 2 5 6 7 9 13 12 11 11 11 10 7 16 17 16 15 14 14 13 12 11 10 9 7 7 8 10 12 13 14 15 17 19 22 25 27 29 30 31 31 31 32 34
0 6 7 6 6 2 1 11 2 4 11 15 13 11 9 8 8 11 18 19 18 18 17 16 14 12 11 9 6 4 4 5 7 10 14 16 18 20 23 26 29 29 30 30 30 32 31 30 32
Wind_Direction
343 335 348 48 60 66 358 328 240 354 28 244 135 114 151 168 144 199 334 181 90 180 182 182 181 182 182 182 183 180 176 169 159 152 145 135 124 119 114 126 117 90 67 69 57 44 50 59 69
343 345 46 76 83 67 284 270 226 246 265 312 113 70 49 2 280 293 12 183 148 182 185 186 186 187 190 194 194 194 189 181 173 168 158 146 139 131 128 142 127 94 65 47 47 30 44 46 52
338 19 81 92 106 148 180 234 244 294 358 70 67 75 140 294 301 279 323 190 183 181 187 194 194 194 194 201 204 199 195 192 189 183 176 166 154 141 135 169 180 24 73 60 10 358 9 14 11
5 21 40 76 92 199 189 256 229 335 18 34 112 63 310 245 263 306 1 178 196 185 195 202 202 202 201 202 206 203 202 203 202 198 194 181 172 154 142 174 24 337 349 336 316 307 322 319 316
44 56 55 73 314 283 273 311 161 49 44 335 348 330 297 348 3 54 91 150 204 197 200 203 207 207 207 210 210 212 211 212 209 209 197 193 199 181 175 182 202 271 315 338 335 301 305 313 310
43 91 61 140 264 300 324 7 105 20 328 344 39 358 279 335 41 48 138 182 226 211 205 206 210 213 212 216 219 220 220 220 216 216 209 208 237 226 217 214 222 241 266 309 317 302 309 316 315
103 77 161 173 285 342 308 321 98 195 2 359 242 1 276 55 359 275 226 234 263 220 222 221 220 221 223 221 221 225 228 229 228 225 221 222 239 243 243 247 255 272 252 278 295 298 312 315 308
101 90 116 220 196 197 321 357 138 75 336 301 210 281 315 10 4 20 103 300 308 256 243 241 239 234 232 231 233 234 233 231 233 230 236 233 240 248 255 252 270 294 270 278 288 292 304 308 292
114 62 170 204 159 207 339 41 304 312 257 345 328 11 356 352 358 29 7 358 344 316 290 263 249 245 240 237 236 237 237 236 242 244 240 242 244 255 252 258 274 289 286 291 294 290 297 297 275
80 106 220 223 190 197 311 81 327 10 359 21 330 4 10 28 34 39 28 11 1 343 307 279 257 250 241 240 243 237 237 239 243 245 246 252 262 257 262 253 266 274 282 291 292 287 293 304 278
137 168 202 254 234 112 303 311 128 349 329 87 291 341 23 32 36 34 27 19 8 4 358 324 271 243 246 240 236 238 236 231 239 250 252 250 255 257 260 264 261 264 281 292 294 291 299 302 283
64 204 190 286 284 36 304 328 356 204 150 127 78 73 50 31 29 24 16 12 10 10 6 356 322 263 237 240 239 238 235 234 239 234 250 249 253 257 258 258 260 258 271 284 291 295 293 293 289
163 295 239 271 264 256 319 250 243 271 77 87 71 52 40 32 21 23 19 17 13 14 11 8 355 322 250 231 237 239 246 243 243 243 242 255 257 256 260 267 258 263 266 276 287 294 292 289 286
219 319 300 290 243 242 210 223 172 25 112 69 64 58 45 40 23 22 20 16 18 16 16 17 15 360 318 225 232 244 251 267 260 253 260 254 259 262 269 259 257 270 265 273 284 288 293 287 286
91 333 326 281 317 220 167 278 212 147 101 76 54 46 43 34 31 27 24 22 19 28 32 34 36 40 61 108 159 205 274 305 312 312 302 293 270 262 255 259 262 268 267 267 267 275 277 282 283
35 55 357 285 161 316 145 261 67 144 98 80 65 46 41 32 30 29 31 37 40 43 45 52 58 68 80 93 103 105 104 88 60 42 30 16 350 314 286 274 273 274 274 269 259 265 262 269 277
8 240 211 312 59 118 125 260 177 128 105 103 74 55 46 30 26 29 38 43 46 52 58 65 69 76 86 93 94 94 92 83 73 66 56 46 33 28 17 354 331 318 304 284 265 260 256 263 271
196 211 233 232 359 68 151 267 285 45 102 115 95 71 53 45 20 33 48 58 62 63 65 70 79 87 86 87 88 87 83 77 74 67 59 52 46 41 37 29 19 10 2 345 318 284 270 281 289
150 177 210 249 221 135 237 237 263 84 101 127 130 114 90 59 28 51 54 59 67 71 71 71 72 74 87 87 82 75 74 74 70 68 60 53 50 45 40 39 34 30 25 17 6 346 333 321 319
147 176 238 284 229 166 262 255 205 20 105 158 142 128 114 101 45 49 60 62 63 64 70 73 74 77 78 79 84 89 82 76 74 67 62 55 48 46 47 47 41 33 31 27 22 15 359 341 346
201 208 186 214 10 257 20 285 171 32 78 84 96 122 119 113 88 40 54 62 65 67 72 71 76 80 87 92 99 96 87 78 71 65 65 60 60 57 53 50 46 43 38 35 27 18 10 356 343
221 197 191 180 119 231 125 272 303 155 125 140 150 151 143 129 104 85 75 73 74 75 81 84 84 83 83 88 89 87 85 79 75 73 71 64 60 57 55 53 52 48 43 34 29 27 25 4 346
224 119 158 142 156 86 239 298 256 129 224 196 198 182 174 167 151 124 95 85 86 86 86 87 85 84 83 84 83 85 87 84 80 74 69 65 59 56 53 49 47 47 44 41 36 26 22 23 9
146 83 54 54 83 267 226 187 251 193 210 168 173 191 179 177 166 134 120 113 99 93 90 90 89 87 86 84 83 84 84 80 74 67 64 59 56 53 50 46 44 42 40 36 32 29 28 23 14
101 105 326 348 332 233 329 165 249 185 182 190 184 177 179 186 175 163 156 136 123 111 106 103 99 95 93 90 86 82 80 75 70 62 58 52 47 44 40 36 35 32 28 24 21 17 14 11 7
181 165 161 210 205 245 62 237 258 351 327 267 164 165 174 179 182 180 171 159 142 135 128 119 110 106 99 93 89 84 78 74 71 64 58 52 46 39 32 27 24 20 15 10 5 1 358 352 349
190 195 145 100 19 45 209 260 225 48 37 107 145 162 187 184 187 185 182 179 169 157 146 134 124 115 108 100 97 90 82 72 65 57 49 41 33 25 18 14 11 7 1 357 351 348 345 340 336
156 162 78 3 256 259 250 256 224 228 214 167 178 192 202 201 193 185 190 192 186 173 164 155 142 128 123 114 100 89 75 63 52 39 31 24 17 9 4 360 357 353 351 348 345 342 340 335 330
139 175 80 143 153 201 283 253 209 207 169 186 201 203 198 202 204 192 196 198 193 187 178 167 160 150 140 131 116 100 76 52 35 25 19 12 4 360 355 352 348 346 344 343 340 336 334 329 328
33 197 163 196 226 238 136 261 349 239 186 180 195 203 206 205 196 190 199 201 201 199 192 186 178 173 167 156 145 119 66 29 13 5 2 357 353 351 349 347 346 345 343 340 336 332 331 327 323
Height
803 802 802 803 831 844 851 837 830 827 825 818 816 818 822 820 828 845 814 814 815 816 818 821 825 829 831 833 836 838 839 841 842 843 844 844 845 846 848 849 850 851 851 851 850 850 850 850 850
803 802 803 817 846 862 857 837 829 824 820 817 816 818 821 825 816 814 813 814 815 817 819 821 824 827 831 833 835 838 840 841 842 844 845 846 847 848 849 850 851 851 852 852 852 851 851 851 851
802 802 812 834 857 859 852 832 825 820 818 817 818 816 819 820 814 814 814 815 816 817 820 822 824 827 830 833 834 837 839 840 842 843 845 846 847 848 850 851 852 852 853 853 853 853 852 852 853
802 804 820 840 837 834 830 825 824 821 818 817 818 821 817 814 814 814 814 815 817 818 820 823 826 828 831 833 834 837 838 840 842 843 845 846 848 849 851 852 853 854 854 853 853 852 852 853 853
804 816 841 845 840 833 828 823 823 823 822 820 818 821 821 814 815 815 815 816 817 818 820 823 825 828 831 834 836 837 839 841 843 844 846 847 849 850 851 852 854 854 854 854 853 852 852 853 853
818 826 850 853 839 831 825 825 822 823 821 819 820 822 820 814 815 816 816 816 817 818 819 821 823 826 829 832 835 837 839 841 843 844 846 847 848 849 851 853 853 853 854 854 854 853 853 853 853
824 839 849 843 841 833 827 825 822 822 823 821 818 823 817 815 816 816 816 817 818 819 821 822 823 825 828 830 832 835 838 840 842 844 845 847 847 849 850 852 852 853 853 854 853 853 853 853 853
825 836 842 842 845 834 824 822 820 821 823 818 816 826 822 817 816 816 817 818 819 820 822 823 824 826 828 830 832 834 836 839 841 843 845 846 847 848 850 851 851 852 852 853 853 853 853 853 853
820 845 851 837 842 828 823 824 820 820 822 821 819 819 821 819 817 817 817 818 819 821 822 823 823 825 827 828 831 833 835 838 840 842 844 846 847 849 850 851 852 852 853 853 853 853 853 853 853
831 849 838 829 825 826 824 824 825 823 827 824 822 820 821 819 818 819 820 821 819 819 820 820 821 822 823 826 829 831 834 837 839 841 843 845 846 847 848 850 851 852 853 853 854 853 852 852 853
830 838 829 823 822 822 824 825 824 826 827 827 827 827 827 825 824 824 825 825 824 821 819 818 817 818 821 822 824 827 831 835 837 840 842 844 845 846 847 849 850 851 852 853 853 853 852 852 852
828 825 827 822 821 823 825 823 826 826 826 826 830 830 831 830 830 829 828 826 823 820 818 816 814 814 815 819 822 824 827 831 834 838 840 841 843 844 846 847 849 850 851 851 852 853 852 851 851
827 825 824 822 824 826 824 825 826 825 826 829 831 832 834 835 834 833 831 828 824 820 818 815 813 811 811 814 819 824 827 829 832 834 836 839 841 842 844 845 846 848 848 849 850 851 851 851 851
824 825 826 822 821 823 824 824 824 830 827 831 833 837 838 836 836 833 830 828 825 822 818 815 812 809 809 812 818 824 827 830 832 833 835 836 838 840 841 842 844 845 846 847 848 849 850 850 850
825 829 830 822 821 821 824 822 825 827 828 835 840 842 841 841 838 835 834 831 829 825 820 815 812 810 809 812 817 823 827 830 832 833 834 835 836 837 838 840 842 843 844 845 845 846 846 847 848
831 838 842 822 822 821 822 834 819 826 828 841 843 845 845 843 842 840 837 832 829 826 822 819 815 812 811 813 817 821 825 828 831 833 834 834 835 836 837 839 840 841 841 841 842 843 843 843 845
848 846 845 835 821 822 824 830 819 826 830 843 848 848 847 846 844 843 839 835 831 827 823 821 821 818 817 817 819 822 825 827 831 834 835 836 835 836 837 838 838 838 839 839 840 840 841 841 842
845 848 844 839 826 823 827 829 820 826 831 845 850 852 850 849 849 845 841 837 833 831 828 826 824 824 824 825 825 825 826 831 833 835 838 839 839 839 838 839 839 839 840 839 840 840 840 841 841
830 838 836 831 825 826 831 832 823 830 840 845 848 850 851 851 851 849 845 842 837 833 830 828 828 829 828 827 828 831 833 835 836 837 840 840 840 839 840 841 840 840 842 843 843 842 841 841 841
830 835 838 834 828 831 829 829 822 835 839 842 848 851 852 853 851 848 845 843 841 840 836 833 832 831 831 832 832 835 837 839 839 841 841 843 843 842 840 840 842 843 842 842 844 845 845 844 843
835 837 836 831 827 829 831 833 832 844 845 845 848 851 852 854 855 854 851 848 847 841 838 840 839 837 836 836 836 838 841 842 842 843 844 845 845 844 844 842 842 842 844 843 844 844 845 847 846
834 826 826 829 834 844 832 844 823 839 848 850 851 853 855 854 855 855 854 849 847 847 846 842 842 842 842 842 840 840 842 845 850 850 849 850 849 849 848 846 844 844 844 845 846 845 845 847 847
821 823 828 830 839 838 835 845 827 838 842 849 853 852 854 854 854 853 855 855 853 851 847 847 848 848 848 847 846 847 848 852 854 854 852 851 853 852 851 851 850 848 848 848 848 847 847 846 848
819 825 835 847 847 855 831 833 827 832 819 837 846 851 853 856 856 856 856 856 855 855 854 854 852 851 850 851 850 850 853 856 855 856 854 855 856 854 854 854 854 853 852 851 851 850 849 848 849
816 826 842 850 859 842 836 838 815 814 820 826 835 842 850 854 856 856 856 856 857 856 857 854 852 852 854 853 854 854 855 857 857 859 858 859 859 857 858 857 855 855 855 854 853 852 851 849 849
818 818 834 840 849 836 840 834 808 828 833 832 832 839 846 849 853 856 857 859 858 857 857 856 854 853 855 856 856 858 860 860 860 860 861 861 861 860 860 861 859 858 856 853 853 852 850 849 848
815 820 815 839 900 858 820 812 823 828 832 835 838 841 844 845 847 850 853 855 854 855 857 857 857 857 857 857 859 859 861 860 861 861 860 860 859 859 859 858 857 856 855 853 851 849 848 846 844
802 810 823 843 849 856 815 815 802 819 826 836 838 839 843 845 845 845 848 851 854 854 855 857 857 857 858 858 859 861 862 862 862 862 861 861 859 859 858 856 854 852 850 848 847 845 842 841 840
809 811 816 819 832 835 846 803 805 801 819 828 832 832 834 839 841 842 844 846 848 851 853 854 855 856 857 858 859 859 860 860 861 861 861 861 860 858 856 854 852 850 847 845 843 843 839 836 833
799 801 806 807 823 843 837 786 811 804 810 813 820 826 830 833 836 837 840 844 847 849 850 852 853 854 856 856 857 857 858 859 859 859 858 858 857 855 853 850 847 845 843 841 839 837 835 833 829